This demonstration page uses our WeatherBlox Daily Observations layout. Learn more.

Left ArrowRight Arrow

Hourly Observations for November 16, 2015

Temp ( °F °C ) Dew Point ( °F °C ) Humidity (%) Winds ( mph kmh ) Pressure ( in mb ) Visibility ( mi km ) Precip ( " mm )
12:53 am 00:53 Clear 38 3.3 30 -1.1 73 73 WSW 9 15 29.44 997 10 16 N/A
1:53 am 01:53 Clear 38 3.3 29 -1.7 70 70 WSW 9 15 29.45 997 10 16 N/A
2:53 am 02:53 Clear 37 2.8 29 -1.7 73 73 SW 9 15 29.46 998 10 16 N/A
3:53 am 03:53 Mostly Clear 40 4.4 31 -0.6 70 70 WSW 8 13 29.49 999 10 16 N/A
4:53 am 04:53 Mostly Cloudy 41 5 32 undefined 70 70 WNW 18 30 29.52 1000 10 16 N/A
5:53 am 05:53 Cloudy 35 1.7 31 -0.6 85 85 NW 25 41 29.59 1002 10 16 N/A
6:53 am 06:53 Cloudy 34 1.1 30 -1.1 85 85 WSW 12 19 29.67 1005 8 13 N/A
7:53 am 07:53 Cloudy with Light Snow 34 1.1 30 -1.1 85 85 WNW 13 20 29.73 1007 5 8 N/A
8:53 am 08:53 Cloudy 34 1.1 29 -1.7 82 82 WNW 15 24 29.77 1008 10 16 N/A
9:07 am 09:07 Cloudy 35 1.7 29 -1.7 78 78 WNW 16 26 29.80 1009 10 16 N/A
9:53 am 09:53 Cloudy 35 1.7 28 -2.2 76 76 WNW 20 31 29.80 1009 10 16 N/A
10:53 am 10:53 Mostly Cloudy 37 2.8 27 -2.8 67 67 WNW 21 33 29.81 1010 10 16 N/A
11:17 am 11:17 Partly Cloudy 39 3.9 27 -2.8 62 62 WNW 22 35 29.83 1010 10 16 N/A
11:53 am 11:53 Mostly Sunny 38 3.3 25 -3.9 60 60 WNW 23 37 29.83 1010 10 16 N/A
12:53 pm 12:53 Sunny 40 4.4 24 -4.4 53 53 WNW 23 37 29.86 1011 10 16 N/A
1:53 pm 13:53 Mostly Cloudy 36 2.2 22 -5.6 57 57 WNW 22 35 29.90 1012 10 16 N/A
2:53 pm 14:53 Cloudy 37 2.8 23 -5 57 57 W 23 37 29.92 1013 10 16 N/A
3:53 pm 15:53 Partly Cloudy 37 2.8 22 -5.6 54 54 WNW 21 33 29.95 1014 10 16 N/A
4:53 pm 16:53 Mostly Cloudy 33 0.6 21 -6.1 61 61 W 9 15 29.98 1015 10 16 N/A
5:53 pm 17:53 Cloudy 34 1.1 21 -6.1 59 59 W 10 17 30.01 1016 10 16 N/A
6:53 pm 18:53 Cloudy 33 0.6 21 -6.1 61 61 W 6 9 30.01 1016 10 16 N/A
7:53 pm 19:53 Clear 30 -1.1 19 -7.2 64 64 WSW 10 17 30.02 1017 10 16 N/A
8:53 pm 20:53 Clear 26 -3.3 19 -7.2 75 75 SSW 10 17 30.01 1016 10 16 N/A
9:53 pm 21:53 Clear 22 -5.6 18 -7.8 85 85 SW 9 15 29.99 1016 10 16 N/A
10:53 pm 22:53 Clear 21 -6.1 18 -7.8 88 88 SW 12 19 29.96 1015 10 16 N/A
11:53 pm 23:53 Clear 23 -5 19 -7.2 85 85 SW 12 19 29.92 1013 10 16 N/A

Powered by AerisWeather